Weather History for Bangkok (Don Mueang), Thailand

Change the Weather History Date:

Wednesday, November 13, 2013

  Actual Average Record
Temperature  
Mean Temperature 86 °F -  
Max Temperature 91 °F 87 °F 95 °F (1996)
Min Temperature 81 °F 73 °F 69 °F (2008)
Cooling Degree Days 21    
Growing Degree Days 36 (Base 50)    
Moisture  
Dew Point 77 °F    
Average Humidity 77    
Maximum Humidity 89    
Minimum Humidity 53    
Precipitation  
Precipitation 0.79 in 0.04 in - ()
Sea Level Pressure  
Sea Level Pressure 29.77 in    
Wind  
Wind Speed 2 mph ()    
Max Wind Speed 12 mph    
Max Gust Speed -    
Visibility 5.7 miles    
Events Rain , Thunderstorm    
Averages and records for this station are not official NWS values.
T = Trace of Precipitation, MM = Missing Value Source: Averaged Metar Reports

Daily Weather History Graph

Daily Weather History Graph

Search for Another Location

Airport:

Trip Planner

Search our weather history database for the weather conditions in past years. The results will help you decide how hot, cold, wet, or windy it might be!

Date:

Astronomy

Nov. 13, 2013 Rise Set
Actual Time 6:16 AM ICT 5:46 PM ICT
Civil Twilight 5:54 AM ICT 6:09 PM ICT
Nautical Twilight 5:28 AM ICT 6:35 PM ICT
Astronomical Twilight 5:02 AM ICT 7:00 PM ICT
Moon 2:39 PM ICT (11/13) 2:18 AM ICT (11/13)
Length of Visible Light 12h 15m
Length of Day
11h 30m
Waxing Gibbous, 80% of the Moon is Illuminated
Nov 13
Waxing Gibbous
Nov 17
Full
Nov 26
Last Quarter
Dec 3
New
Dec 9
First Quarter

Hourly Weather History & Observations

Time (ICT) Temp. Heat Index Dew Point Humidity Pressure Visibility Wind Dir Wind Speed Gust Speed Precip Events Conditions
12:00 AM 84.2 °F 94.1 °F 77.0 °F 79% 29.80 in 6.2 mi Calm Calm - N/A   Mostly Cloudy
12:30 AM 84.2 °F 94.1 °F 77.0 °F 79% 29.80 in 6.2 mi Calm Calm - N/A   Mostly Cloudy
1:00 AM 83 °F - 76 °F 75% 29.80 in 6 mi ESE 3.5 mph - -   Scattered Clouds
1:00 AM 84.2 °F 94.1 °F 77.0 °F 79% 29.80 in 6.2 mi ESE 3.5 mph - N/A   Mostly Cloudy
1:30 AM 84.2 °F 94.1 °F 77.0 °F 79% 29.77 in 6.2 mi Calm Calm - N/A   Mostly Cloudy
2:00 AM 84.2 °F 94.1 °F 77.0 °F 79% 29.77 in 6.2 mi Calm Calm - N/A   Mostly Cloudy
2:30 AM 84.2 °F 94.1 °F 77.0 °F 79% 29.77 in 5.6 mi Calm Calm - N/A   Mostly Cloudy
3:00 AM 84.2 °F 94.1 °F 77.0 °F 79% 29.74 in 5.6 mi Calm Calm - N/A   Mostly Cloudy
3:30 AM 82.4 °F 90.9 °F 77.0 °F 84% 29.74 in 5.6 mi South 3.5 mph - N/A   Mostly Cloudy
4:00 AM 83 °F - 78 °F 79% 29.75 in 6 mi Calm Calm - -   Mist
4:00 AM 82.4 °F 90.9 °F 77.0 °F 84% 29.74 in 5.6 mi Calm Calm - N/A   Mostly Cloudy
4:30 AM 82.4 °F 90.9 °F 77.0 °F 84% 29.74 in 5.6 mi Calm Calm - N/A   Mostly Cloudy
5:00 AM 82.4 °F 90.9 °F 77.0 °F 84% 29.74 in 5.6 mi Calm Calm - N/A   Mostly Cloudy
5:30 AM 82.4 °F 90.9 °F 77.0 °F 84% 29.77 in 5.6 mi Calm Calm - N/A   Mostly Cloudy
6:00 AM 82.4 °F 89.5 °F 75.2 °F 79% 29.77 in 5.6 mi East 2.3 mph - N/A   Mostly Cloudy
6:30 AM 80.6 °F 86.2 °F 75.2 °F 84% 29.77 in 5.6 mi East 3.5 mph - N/A   Mostly Cloudy
7:00 AM 82 °F - 76 °F 77% 29.80 in 5 mi SE 2.3 mph - -   Mist
7:00 AM 82.4 °F 89.5 °F 75.2 °F 79% 29.80 in 5.0 mi SE 2.3 mph - N/A   Mostly Cloudy
7:30 AM 82.4 °F 89.5 °F 75.2 °F 79% 29.80 in 5.0 mi Calm Calm - N/A   Mostly Cloudy
8:00 AM 82.4 °F 90.9 °F 77.0 °F 84% 29.80 in 5.0 mi Calm Calm - N/A   Mostly Cloudy
8:30 AM 84.2 °F 94.1 °F 77.0 °F 79% 29.80 in 5.0 mi WSW 4.6 mph - N/A   Mostly Cloudy
9:00 AM 86.0 °F 96.9 °F 77.0 °F 74% 29.83 in 5.0 mi NW 4.6 mph - N/A   Mostly Cloudy
9:30 AM 87.8 °F 99.7 °F 77.0 °F 70% 29.83 in 5.0 mi WNW 5.8 mph - N/A   Mostly Cloudy
10:00 AM 89 °F - 76 °F 57% 29.85 in 5 mi NW 4.6 mph - -   Mist
10:00 AM 87.8 °F 97.6 °F 75.2 °F 66% 29.83 in 5.0 mi NW 4.6 mph - N/A   Mostly Cloudy
10:30 AM 89.6 °F 102.2 °F 77.0 °F 66% 29.83 in 5.0 mi NNE 3.5 mph - N/A   Mostly Cloudy
11:00 AM 91.4 °F 105.1 °F 77.0 °F 63% 29.80 in 6.2 mi NNE 5.8 mph - N/A   Mostly Cloudy
11:30 AM 91.4 °F 105.1 °F 77.0 °F 63% 29.80 in 6.2 mi NE 5.8 mph - N/A   Mostly Cloudy
12:00 PM 91.4 °F 105.1 °F 77.0 °F 63% 29.77 in 6.2 mi NE 4.6 mph - N/A   Mostly Cloudy
12:30 PM 91.4 °F 102.5 °F 75.2 °F 59% 29.74 in 6.2 mi NNW 5.8 mph - N/A   Mostly Cloudy
1:00 PM 91 °F - 76 °F 53% 29.74 in 6 mi NW 5.8 mph - -   Scattered Clouds
1:00 PM 91.4 °F 105.1 °F 77.0 °F 63% 29.74 in 6.2 mi NW 5.8 mph - N/A   Mostly Cloudy
1:30 PM 87.8 °F 97.6 °F 75.2 °F 66% 29.71 in 6.2 mi WSW 9.2 mph - N/A Thunderstorm Thunderstorm
2:00 PM 86.0 °F 96.9 °F 77.0 °F 74% 29.71 in 3.7 mi SSW 11.5 mph - N/A Rain , Thunderstorm Light Thunderstorms and Rain
2:30 PM 84.2 °F 94.1 °F 77.0 °F 79% 29.71 in 6.2 mi WSW 4.6 mph - N/A Thunderstorm Thunderstorm
3:00 PM 84.2 °F 94.1 °F 77.0 °F 79% 29.71 in 3.7 mi ENE 9.2 mph - N/A Rain , Thunderstorm Light Thunderstorms and Rain
3:30 PM 82.4 °F 90.9 °F 77.0 °F 84% 29.71 in 1.9 mi WNW 8.1 mph - N/A Rain , Thunderstorm Heavy Thunderstorms and Rain
4:00 PM 83 °F - 78 °F 82% 29.72 in 6 mi Calm Calm - - Rain , Thunderstorm Thunderstorms and Rain
4:00 PM 82.4 °F 92.4 °F 78.8 °F 89% 29.71 in 6.2 mi Calm Calm - N/A   Mostly Cloudy
4:30 PM 84.2 °F 96.1 °F 78.8 °F 84% 29.71 in 6.2 mi Calm Calm - N/A   Mostly Cloudy
5:00 PM 84.2 °F 94.1 °F 77.0 °F 79% 29.71 in 6.2 mi Calm Calm - N/A   Mostly Cloudy
5:30 PM 84.2 °F 94.1 °F 77.0 °F 79% 29.71 in 6.2 mi East 2.3 mph - N/A   Mostly Cloudy
6:00 PM 84.2 °F 94.1 °F 77.0 °F 79% 29.74 in 6.2 mi ENE 3.5 mph - N/A   Mostly Cloudy
6:30 PM 84.2 °F 96.1 °F 78.8 °F 84% 29.74 in 6.2 mi Calm Calm - N/A   Mostly Cloudy
7:00 PM 84 °F - 78 °F 76% 29.76 in 6 mi Calm Calm - -   Partly Cloudy
7:00 PM 84.2 °F 94.1 °F 77.0 °F 79% 29.74 in 6.2 mi Calm Calm - N/A   Mostly Cloudy
7:30 PM 84.2 °F 94.1 °F 77.0 °F 79% 29.77 in 6.2 mi SE 2.3 mph - N/A   Mostly Cloudy
8:00 PM 84.2 °F 94.1 °F 77.0 °F 79% 29.80 in 6.2 mi South 3.5 mph - N/A   Mostly Cloudy
8:30 PM 84.2 °F 94.1 °F 77.0 °F 79% 29.80 in 6.2 mi Calm Calm - N/A   Mostly Cloudy
9:00 PM 84.2 °F 94.1 °F 77.0 °F 79% 29.83 in 6.2 mi Calm Calm - N/A   Mostly Cloudy
9:30 PM 84.2 °F 94.1 °F 77.0 °F 79% 29.83 in 6.2 mi Calm Calm - N/A   Mostly Cloudy
10:00 PM 83 °F - 78 °F 79% 29.84 in 6 mi ESE 2.3 mph - -   Mist
10:00 PM 84.2 °F 94.1 °F 77.0 °F 79% 29.83 in 5.6 mi ESE 2.3 mph - N/A   Mostly Cloudy
10:30 PM 84.2 °F 94.1 °F 77.0 °F 79% 29.83 in 5.6 mi Calm Calm - N/A   Mostly Cloudy
11:00 PM 84.2 °F 94.1 °F 77.0 °F 79% 29.83 in 5.6 mi Calm Calm - N/A   Mostly Cloudy
11:30 PM 82.4 °F 90.9 °F 77.0 °F 84% 29.80 in 5.6 mi Calm Calm - N/A   Mostly Cloudy